Tracking 19709 objects as of 20-Jun-2019
HD Live streaming from Space Station
objects crossing your sky now

CATSAT-2

Track CATSAT-2 now!
10-day predictions


NORAD ID: 44029
Int'l Code: 1998-067PV
Perigee: 401.5 km
Apogee: 408.8 km
Inclination: 51.6 °
Period: 92.5 minutes
Semi major axis: 6776 km
RCS: Unknown
Launch date: November 20, 1998
Source: United States (US)
Launch site: TYURATAM MISSILE AND SPACE COMPLEX (TTMTR)
aabbcc
Your satellite tracking list
Your tracking list is empty




NASA's NSSDC Master Catalog

Two Line Element Set (TLE):
1 44029U 98067PV  19171.47317225  .00005994  00000-0  89995-4 0  9990
2 44029  51.6403 342.2177 0005414 150.0761 210.0541 15.56420143 21850
Source of the keplerian elements: AFSPC